Probability
60 61 75 86 77 69 76 77 67 65 60 41 22 14 15 16 16 23 47 76 88 86 82 72 58 43 29 18 11 8 7 8 8 6 3 2 1 0 0 0 0 0 0
81 81 87 92 87 79 80 82 78 77 71 55 38 29 29 28 26 34 55 78 89 90 86 77 65 53 41 30 22 18 15 14 12 10 7 4 2 1 0 0 0 0 0
97 97 97 97 95 91 89 90 88 86 81 69 57 47 42 41 40 48 65 81 87 89 88 82 72 64 57 47 40 34 29 23 18 14 9 7 5 3 1 0 0 0 0
99 100 99 98 98 97 96 95 93 90 84 76 66 55 48 46 46 51 63 76 81 83 85 84 79 73 66 60 55 49 43 37 28 17 11 8 6 4 2 0 0 0 0
100 100 99 98 98 97 96 94 93 91 86 78 67 55 46 43 41 43 50 61 68 75 79 81 81 75 67 64 61 54 51 49 42 28 15 10 7 4 1 0 0 0 0
100 100 100 99 97 96 95 94 91 89 85 78 67 53 40 33 30 32 39 45 51 61 68 74 77 71 64 60 54 49 49 53 53 43 27 17 12 6 2 0 0 0 0
100 100 100 100 99 98 96 95 91 86 81 74 64 51 37 27 23 28 39 47 46 51 58 63 67 68 63 54 43 38 40 46 52 50 40 29 19 10 4 0 0 0 0
100 99 99 99 99 99 97 95 91 83 73 65 58 47 36 28 23 27 43 55 56 58 58 53 53 58 57 48 35 26 25 31 39 44 42 33 22 14 7 2 0 0 0
99 98 97 97 97 97 96 94 89 78 66 60 52 38 28 24 20 24 36 49 59 65 59 45 36 38 41 36 26 15 12 15 21 29 31 27 20 14 9 5 2 1 0
98 98 96 96 96 95 94 92 86 76 65 57 47 33 24 19 13 14 19 28 42 52 48 34 24 23 24 20 13 7 3 4 8 14 18 18 14 11 8 6 6 4 2
99 98 97 96 95 94 93 90 84 76 66 54 42 33 26 19 12 8 6 10 20 28 29 24 18 15 13 9 6 2 0 0 1 4 7 9 9 8 7 6 7 7 6
98 97 96 95 94 93 91 86 80 72 62 50 39 32 26 20 15 10 4 2 7 11 14 15 12 8 6 4 2 1 0 0 0 1 1 3 4 5 6 6 6 6 7
94 94 93 92 92 91 87 80 73 65 55 45 37 32 27 23 20 14 7 2 2 4 4 6 5 3 1 1 0 0 0 0 0 0 0 1 1 2 3 3 3 3 4
82 83 85 86 86 84 80 74 68 60 52 45 38 33 30 29 25 17 8 3 1 1 1 1 2 1 1 0 0 0 0 0 0 0 0 0 0 0 1 1 1 1 1
66 68 72 74 73 71 69 66 62 56 50 45 41 36 34 32 26 15 7 3 1 0 0 0 1 1 0 0 0 0 0 0 0 0 0 0 0 0 0 0 0 0 0
48 49 52 54 52 51 51 50 48 47 44 42 39 33 29 25 19 11 4 1 0 0 0 0 0 0 0 0 0 0 0 0 0 0 0 0 0 0 0 0 0 0 0
27 29 31 32 31 31 32 32 32 34 34 34 30 23 16 13 10 7 3 0 0 0 0 0 0 0 0 0 0 0 0 0 0 0 0 0 0 0 0 0 0 0 0
11 14 17 18 17 17 20 20 19 19 20 21 17 11 6 4 4 3 1 0 0 0 0 0 0 0 0 0 0 0 0 0 0 0 0 0 0 0 0 0 0 0 0
4 6 10 11 10 10 11 11 9 8 8 8 7 4 2 1 1 1 0 0 0 0 0 0 0 0 0 0 0 0 0 0 0 0 0 0 0 0 0 0 0 0 0
1 2 3 5 5 4 3 4 4 3 2 1 1 1 1 0 0 0 0 0 0 0 0 0 0 0 0 0 0 0 0 0 0 0 0 0 0 0 0 0 0 0 0
0 0 0 1 1 0 0 1 1 1 0 0 0 0 0 0 0 0 0 0 0 0 0 0 0 0 0 0 0 0 0 0 0 0 0 0 0 0 0 0 0 0 0
0 0 0 0 0 0 0 0 0 0 0 0 0 0 0 0 0 0 0 0 0 0 0 0 0 0 0 0 0 0 0 0 0 0 0 0 0 0 0 0 0 0 0
0 0 0 0 0 0 0 0 0 0 0 0 0 0 0 0 0 0 0 0 0 0 0 0 0 0 0 0 0 0 0 0 0 0 0 0 0 0 0 0 0 0 0
0 0 0 0 0 0 0 0 0 0 0 0 0 0 0 0 0 0 0 0 0 0 0 0 0 0 0 0 0 0 0 0 0 0 0 0 0 0 0 0 0 0 0
0 0 0 0 0 0 0 0 0 0 0 0 0 0 0 0 0 0 0 0 0 0 0 0 0 0 0 0 0 0 0 0 0 0 0 0 0 0 0 0 0 0 0
0 0 0 0 0 0 0 0 0 0 0 0 0 0 0 0 0 0 0 0 0 0 0 0 0 0 0 0 0 0 0 0 0 0 0 0 0 0 0 0 0 0 0
Wind_Speed
6 6 3 2 3 3 4 5 5 5 5 6 7 8 7 7 7 5 4 14 16 16 16 16 16 16 16 15 15 15 15 15 14 14 15 16 16 16 15 16 16 16 15
5 4 3 3 3 4 3 3 4 3 4 4 5 6 6 6 6 6 5 10 17 17 17 17 17 17 17 16 16 16 15 15 14 14 14 15 15 15 15 15 16 16 16
6 4 4 3 4 4 4 3 4 3 4 5 4 6 5 6 6 6 5 4 7 15 18 18 18 17 17 17 17 16 16 15 14 14 14 14 14 14 14 14 15 15 16
6 5 4 4 3 3 3 3 3 3 3 3 3 4 4 4 7 6 6 6 6 6 13 19 19 17 18 18 18 17 16 15 15 14 14 14 14 14 14 14 14 14 15
7 5 4 3 3 2 2 4 3 2 3 3 4 5 4 5 6 8 7 7 6 5 5 11 19 19 18 18 17 17 16 16 16 15 15 15 15 14 14 14 14 14 15
6 5 4 5 3 3 3 3 4 3 2 2 5 6 5 6 7 7 8 6 5 6 6 5 7 12 17 16 16 16 16 16 16 15 15 15 15 15 14 14 14 15 15
5 5 5 5 4 4 4 4 4 4 3 2 2 4 5 7 9 8 8 6 5 4 2 2 3 3 5 15 15 14 15 16 15 15 15 15 15 15 15 15 15 15 15
6 7 7 5 5 5 5 5 4 4 3 3 3 2 3 4 7 8 6 6 6 3 2 3 3 3 3 3 7 13 14 13 13 13 14 14 14 14 14 14 14 15 15
7 7 7 7 6 6 6 6 6 7 5 4 4 4 3 3 4 5 6 4 3 2 1 2 3 3 4 3 3 7 9 8 8 10 10 10 11 11 11 11 12 13 14
8 8 8 8 7 7 7 8 7 6 6 5 4 5 5 3 3 4 4 3 1 1 2 3 3 2 1 1 1 3 4 4 5 7 7 7 7 8 9 10 10 11 12
8 9 8 8 7 7 8 7 7 7 6 6 4 3 4 5 7 5 5 4 3 2 2 2 1 1 2 1 1 4 4 3 3 4 4 5 5 6 7 8 10 11 12
6 8 8 7 8 7 7 7 7 7 6 6 4 4 3 4 4 5 5 4 3 3 2 1 1 1 0 1 3 5 3 4 4 3 3 4 5 5 5 6 8 10 12
5 6 6 6 7 7 7 7 6 7 7 7 6 4 4 4 3 3 3 3 2 2 2 1 2 2 1 2 3 3 4 5 5 4 4 4 4 4 5 6 8 11 12
4 4 5 5 6 6 6 6 6 6 5 5 5 4 2 2 1 2 1 1 2 2 1 1 1 3 2 1 2 4 3 6 7 6 5 4 4 4 5 7 8 10 12
4 3 3 4 4 4 4 4 5 5 4 4 3 2 1 1 1 0 1 1 1 2 2 2 2 2 2 1 1 3 2 5 7 7 6 6 5 5 6 7 9 10 12
4 2 2 2 1 1 1 2 2 3 3 3 3 3 2 1 1 1 1 1 1 1 2 2 2 2 3 5 2 3 3 4 8 9 8 7 6 6 6 8 9 10 12
6 4 3 3 3 2 2 1 1 3 4 3 4 5 4 4 3 3 2 2 2 2 2 3 2 2 3 4 4 4 3 3 4 9 10 8 7 7 7 8 9 11 12
6 6 5 5 4 4 4 4 4 5 5 6 6 5 5 5 5 4 3 3 2 1 1 3 2 2 3 4 5 5 4 3 2 5 10 9 8 7 7 7 8 10 11
6 6 5 5 5 5 5 5 6 7 7 7 7 7 7 7 6 4 4 5 4 4 2 2 2 2 3 4 5 6 5 3 4 0 6 8 8 8 7 7 7 8 10
5 5 5 4 4 4 5 6 7 8 8 8 8 8 8 7 6 5 6 6 5 5 4 3 3 4 4 6 6 6 5 4 4 4 3 1 4 7 8 6 6 7 7
3 3 3 4 4 5 6 5 6 8 7 8 8 7 8 8 8 6 6 5 5 5 5 5 4 5 5 6 6 5 6 5 4 3 3 2 1 2 3 4 4 5 6
2 2 3 4 6 6 9 10 7 7 6 6 6 5 6 6 5 5 5 5 5 5 5 5 4 5 5 5 5 6 5 6 5 4 4 3 2 2 2 2 2 4 5
1 1 3 5 6 6 10 11 8 5 6 5 5 4 6 8 7 5 3 1 1 1 2 2 4 4 4 4 5 6 7 6 5 4 4 3 2 2 2 2 2 3 4
2 1 3 4 5 6 8 9 9 4 5 5 6 6 6 7 8 7 5 3 2 2 2 2 2 3 3 4 4 5 6 7 4 2 3 3 3 3 2 0 1 2 3
3 2 3 4 5 4 6 8 8 2 3 5 6 7 6 6 9 10 6 5 5 5 2 3 5 7 8 9 5 4 6 6 6 4 3 3 4 4 2 1 1 1 2
4 4 4 4 5 4 4 6 6 2 1 4 6 6 9 7 7 9 6 5 5 5 7 7 5 5 4 3 4 2 4 5 6 5 5 4 4 4 4 2 1 0 0
Wind_Direction
213 227 226 215 233 234 203 208 224 226 225 236 241 242 234 238 245 239 209 195 201 206 212 218 223 230 235 236 237 237 235 234 230 226 224 223 222 221 220 220 220 217 214
218 219 216 209 229 250 253 216 238 237 232 241 251 256 248 248 250 242 231 204 210 213 216 220 223 227 231 234 236 235 234 232 228 224 221 221 221 220 219 219 218 216 213
217 212 222 221 225 232 239 232 253 261 255 252 255 267 265 255 252 250 244 235 217 217 222 224 225 227 229 232 235 235 232 228 224 221 218 217 217 218 218 218 217 215 212
218 212 215 227 233 236 242 236 232 247 259 275 282 281 281 280 269 257 244 235 231 229 220 223 228 227 228 231 234 235 231 225 221 219 218 216 215 215 215 216 216 214 211
208 208 219 227 240 251 257 265 252 246 269 277 280 274 276 283 284 276 260 246 237 232 224 219 220 223 227 230 232 234 232 226 222 220 219 218 216 215 214 214 214 213 211
202 203 216 226 230 237 244 251 266 263 260 273 284 288 297 291 283 276 269 262 247 237 231 232 207 221 227 229 230 232 233 229 224 222 221 220 218 215 214 213 213 213 212
213 206 224 219 217 226 231 235 245 250 246 234 256 276 276 274 271 265 258 253 254 250 228 221 209 215 211 224 230 233 234 234 229 224 223 222 220 217 214 214 213 214 213
221 225 220 220 215 221 229 230 227 232 235 215 209 252 287 289 274 260 245 227 228 224 229 249 233 223 230 207 217 228 234 237 236 231 227 225 221 217 215 215 215 214 215
226 228 224 219 216 212 217 218 217 220 226 220 207 206 225 247 309 296 274 249 201 183 232 265 251 230 224 230 213 213 226 235 238 237 232 228 221 213 213 216 218 218 217
236 230 226 223 220 219 218 221 217 216 218 226 220 217 224 232 259 294 305 306 286 216 237 265 295 311 303 288 92 125 189 217 240 243 235 226 220 212 209 213 221 225 224
236 232 228 225 222 225 225 220 214 212 215 222 218 215 226 236 236 249 275 294 304 286 240 212 241 7 2 30 80 106 149 186 218 241 246 245 240 232 226 228 234 238 237
245 236 233 227 226 227 225 221 218 218 218 223 221 218 219 224 227 229 248 266 272 270 254 147 132 136 130 68 75 119 157 190 207 217 234 251 257 256 254 252 253 254 254
258 247 239 234 234 230 227 223 219 224 221 219 217 220 222 229 240 242 253 278 291 286 261 180 158 143 102 99 115 158 202 207 209 216 231 247 259 267 272 274 271 267 265
274 265 251 243 241 237 233 224 221 216 212 212 218 211 216 221 239 235 248 314 312 310 332 17 66 74 55 46 124 214 226 207 204 210 222 237 253 267 274 279 280 279 274
289 280 267 260 256 245 234 222 223 211 194 190 191 185 185 166 229 34 35 16 346 330 333 21 23 41 23 357 169 255 256 200 201 211 222 233 247 263 275 282 281 278 274
327 331 326 320 312 294 272 244 219 191 159 149 147 128 103 79 65 34 36 30 24 344 332 346 359 36 18 350 14 319 307 202 210 216 223 230 241 258 273 282 283 281 276
359 14 22 25 11 3 11 353 231 145 130 117 108 102 94 77 51 27 25 32 35 23 338 334 6 20 22 354 334 311 291 238 221 214 219 226 238 252 262 273 282 286 285
14 17 27 30 17 27 33 47 81 101 101 98 91 90 83 79 66 44 20 27 16 347 337 337 346 14 23 4 344 328 337 338 308 209 211 221 233 248 262 275 284 290 291
32 23 26 43 32 37 45 57 75 85 85 83 81 79 71 62 50 32 37 25 5 0 343 346 7 31 25 6 352 345 350 346 336 4 209 224 236 248 261 274 287 296 299
46 35 21 32 47 53 59 65 76 83 84 80 75 71 67 61 43 15 46 25 12 353 357 17 32 33 24 7 4 348 347 348 346 355 345 284 236 244 254 266 290 308 314
57 46 35 36 48 59 64 74 91 94 89 89 87 87 81 78 64 47 50 29 20 17 18 17 27 30 19 8 0 339 344 335 337 2 338 333 311 276 256 256 284 330 340
44 42 48 51 56 62 54 57 79 91 89 90 93 102 109 81 73 67 66 59 46 42 29 19 23 17 11 5 344 336 337 338 335 346 335 323 347 336 335 3 18 360 4
117 79 77 77 78 61 55 54 47 92 88 78 70 58 72 66 46 26 14 105 96 74 39 33 29 2 354 350 336 332 332 329 319 327 336 320 339 332 338 28 26 20 21
167 129 103 99 98 74 56 47 29 75 90 87 74 63 72 59 32 10 357 23 48 59 18 41 23 330 336 325 322 320 322 330 331 355 359 324 331 327 318 14 52 35 42
171 163 142 122 110 89 57 44 26 43 97 92 82 58 68 68 29 14 14 27 26 13 356 300 279 282 292 299 305 332 344 349 344 344 9 338 324 319 305 327 83 44 51
180 177 155 141 137 125 88 55 25 351 133 119 108 91 72 69 43 27 19 22 19 355 337 325 305 284 295 334 12 12 358 349 341 336 359 348 332 335 325 332 8 261 50